Location: Skalnate Pleso
(49.1889°N, 20.2450°E)
Time: 02:52:42
(UTC+02:00)

Cosmos 1605 Rocket - Pass Details

Date: 23 February 2020
Orbit: 944 x 1007 km, 82.9° (Epoch: 01 April)

Event Time Altitude Azimuth Distance (km) Brightness Sun altitude
Rises 02:19:45 0° 356° (N) 3,689 7.4 -40.4°
Reaches altitude 10° 02:22:36 10° 6° (N) 2,727 6.7 -40.0°
Maximum altitude 02:28:06 32° 68° (ENE) 1,597 5.5 -39.3°
Enters shadow 02:28:56 31° 83° (E) 1,629 5.5 -39.2°
